Voltar ao catálogo

STARLINK-6310

AtivoComunicaçõesVLEO
NORAD 56533·PAYLOAD·🇺🇸 United States

Lançado May 14, 2023 de Cape Canaveral Space Force Station

Loading…

Próximas Passagens (próximas 24 horas)

TLE

AtualizadoSource: CelesTrak SupGP

Época: Sep 15, 2026, 02:00 UTC

1 56533C 23065AG  26258.08381944 -.00011744  00000+0 -42573-3 0  2588
2 56533  42.9993 208.4542 0000520 244.7906  44.7018 15.27557434    12

Acompanhe STARLINK-6310 em tempo real com AllMySat

Download on the App Store